KINEIS-5C

Last updated on Fri Sep 11 2026 00:02:53 GMT+0000 (Coordinated Universal Time)

1 62081U 24219A 26253.55522840 .00000422 00000+0 74343-4 0 9996 2 62081 97.9141 50.0876 0004454 27.6648 332.4796 14.72311201 96311
UTC large
Height (km)
Speed (km/s)
/
Latitude / Longitude
Inclination (degrees)
Orbital Period (minutes)
Azimuth
Elevation
Range (km)
Doppler Factor

Next 0 passes for location: London (51.5072 / 0.1276)

No passes found over London.
KINEIS-5C